Starlink 3366

operational
NORAD ID: 51104 Int'l Des: 2022-005 Owner: SPXS Country: US Constellation: starlink
LEOCIRCULAR

About Starlink 3366

Description loading...

Live Position

Loading 3D Globe...

Upcoming Passes

Altitude History

Altitude vs Time

uPlot chart will show altitude changes over time

Two-Line Element Set

1 51104U 22005A 25257.60717919 .00001070 00000-0 85306-4 0 9995
2 51104 53.2196 359.5868 0001409 89.4813 270.6341 15.08839840202294
Epoch: Sep 14, 2025 • Age: 18 hours

Current Status

Altitude 543.9 km
Velocity 7.59 km/s
Sub-Earth Point -14.35°S, 58.55°E
Launch Date Jan 19, 2022
Age 3.6 years
Type internet

Technical Details

Classification Payload
Mass 297.00 kg
Dry Mass 275.00 kg
Total Mass 297.00 kg
Length 0.20 m
Diameter 2.80 m
Span 9.00 m
Shape Box + pan
Manufacturer SPXS
Bus Type Starlink
Phase Status In Orbit
Owner/State SPXS/US

Large Constellations

Loading constellations...